User: anonymous   Login
Location: Thompson
(55.7500°N, 97.8670°W)
Time: 09:41:07
(UTC-05:00)
Language:

Cosmos 1833 Rocket - Orbit

View from above orbital plane
View from above orbital plane
View from above satellite
View from above satellite

Ground track
Ground track

The orbit data is extracted from the following two-line orbital elements,

1 17590U 87027B   15110.17294365  .00000119  00000-0  83579-4 0  9998
2 17590 071.0055 011.3759 0003084 050.0714 310.0680 14.16691413452375
Epoch (UTC): 20 April 2015 04:09:02
Eccentricity: 0.0003084
inclination: 71.0055°
perigee height: 834 km
apogee height: 839 km
right ascension of ascending node: 11.3759°
argument of perigee: 50.0714°
revolutions per day: 14.16691413
mean anomaly at epoch: 310.0680°
orbit number at epoch: 45237

The dashed part of the orbit path shows where the satellite is in the earth's shadow,  

DLR